User: anonymous   Login
Location: Unspecified
(0.0000°N, 0.0000°E)
Time: 00:57:13
(UTC+00:00)
Language:

PROBA 2 - Orbit

View from above orbital plane
View from above orbital plane
View from above satellite
View from above satellite

Ground track
Ground track

The orbit data is extracted from the following two-line orbital elements,

1 36037U 09059B   19109.13837040  .00000006  00000-0  12204-4 0  9997
2 36037  98.2354 301.2960 0014617  71.8856 288.3931 14.53067283501567
Epoch (UTC): 19 April 2019 03:19:15
Eccentricity: 0.0014617
inclination: 98.2354°
perigee height: 705 km
apogee height: 726 km
right ascension of ascending node: 301.2960°
argument of perigee: 71.8856°
revolutions per day: 14.53067283
mean anomaly at epoch: 288.3931°
orbit number at epoch: 50156

The dashed part of the orbit path shows where the satellite is in the earth's shadow,  

DLR